Home   Weather   Cuenca   Past weeks

Flag for Ecuador Past Weather in Cuenca, Ecuador — Yesterday and Last 2 Weeks

Now
70 °F

Partly sunny.


Feels Like: 70 °F
Forecast: N/A
Wind: 10 mph from North

Location: Cuenca / Mariscal Lamar

Current Time: Apr 23, 2017 at 5:09:44 pm

Latest Report: Apr 23, 2017 at 4:00 pm


Visibility: N/A

Pressure: 30.18 "Hg (22.43 "Hg at 2554m altitude)

Humidity: 53%

Dew Point: 52 °F

Location of CuencaLocation

Past Weather in Cuenca — Graph

°F

Cuenca Temperature Yesterday

Maximum temperature yesterday: 86 °F (at 3:00 pm)
Minimum temperature yesterday: 50 °F (at 5:00 am)
Average temperature yesterday: 61 °F

High & Low Weather Summary for the Past Weeks

 TemperatureHumidityPressure
High86 °F (Apr 22, 3:00 pm)100% (Apr 11, 6:00 am)30.39 "Hg (Apr 11, 6:00 am)
Low50 °F (Apr 22, 5:00 am)22% (Apr 22, 3:00 pm)30.12 "Hg (Apr 11, 3:00 pm)
Average60 °F80%30.29 "Hg
* Reported Apr 8 4:00 pm — Apr 23 4:00 pm, Cuenca, Weather by CustomWeather, © 2017

Note: Actual official high and low records may vary slightly from our data, if they occured in-between our weather recording intervals... More about our weather records

Advertising

Cuenca Weather History for the Previous 24 Hours

Scroll right to see more
 ConditionsComfort  
Time TempWeatherWind HumidityBarometerVisibility
4:00 pm
Sun, Apr 23
70 °FPartly sunny.10 mph53%30.18 "HgN/A
3:00 pm73 °FScattered clouds.13 mph50%30.21 "HgN/A
2:00 pm70 °FBroken clouds.3 mph53%30.24 "HgN/A
1:00 pm66 °FBroken clouds.5 mph56%30.30 "HgN/A
12:00 pm68 °FBroken clouds.6 mph60%30.36 "HgN/A
11:00 am64 °FPartly sunny.9 mph64%30.39 "HgN/A
10:00 am64 °FBroken clouds.5 mph68%30.39 "HgN/A
9:00 am61 °FBroken clouds.3 mph77%30.39 "HgN/A
8:00 am59 °FScattered clouds.2 mph88%30.36 "HgN/A
7:00 am55 °FPartly sunny.3 mph100%30.33 "HgN/A
6:00 am55 °FOvercast.3 mph94%30.30 "HgN/A
5:00 am57 °FCool.2 mph88%30.27 "HgN/A
4:00 am57 °FCool.2 mph88%30.27 "HgN/A
3:00 am57 °FCool.3 mph88%30.27 "HgN/A
2:00 am57 °FCool.2 mph88%30.30 "HgN/A
1:00 am59 °FCool.6 mph82%30.30 "HgN/A
12:00 am59 °FCool.No wind82%30.33 "HgN/A
11:00 pm
Sat, Apr 22
61 °FCool.2 mph77%30.36 "HgN/A
10:00 pm61 °FCool.No wind77%30.33 "HgN/A
9:00 pm63 °FPassing clouds.5 mph73%30.33 "HgN/A
8:00 pm63 °FPassing clouds.6 mph77%30.30 "HgN/A
7:00 pm63 °FPassing clouds.10 mph83%30.27 "HgN/A
6:00 pm68 °FPartly sunny.8 mph64%30.21 "HgN/A
5:00 pm72 °FPartly sunny.5 mph53%30.18 "HgN/A
Weather by CustomWeather, © 2017

See weather overviewHow to use our weather pages